Waarnemingen

Advertentie
Mijn weer
Zwiesel, Duitsland (10796): temperatuur & dauwpunt: 12.02.2019 01:00:00 - 18.02.2019 01:00:00 (CET)Zwiesel, Duitsland (10796): temperatuur 5cm & temperatuur -5cm: 12.02.2019 01:00:00 - 18.02.2019 01:00:00 (CET)Zwiesel, Duitsland (10796): temperatuur -20cm & temperatuur -100cm: 12.02.2019 01:00:00 - 18.02.2019 01:00:00 (CET)Zwiesel, Duitsland (10796): windsnelheid & windstoten: 12.02.2019 01:00:00 - 18.02.2019 01:00:00 (CET)Zwiesel, Duitsland (10796): windrichting: 12.02.2019 01:00:00 - 18.02.2019 01:00:00 (CET)Zwiesel, Duitsland (10796): luchtdruk: 12.02.2019 01:00:00 - 18.02.2019 01:00:00 (CET)Zwiesel, Duitsland (10796): zicht: 12.02.2019 01:00:00 - 18.02.2019 01:00:00 (CET)Zwiesel, Duitsland (10796): Zonneschijnduur: 12.02.2019 01:00:00 - 18.02.2019 01:00:00 (CET)Zwiesel, Duitsland (10796): neerslag: 12.02.2019 01:00:00 - 18.02.2019 01:00:00 (CET)
Datum & Tijd tt [°C] td [°C] tt 5cm [°C] tt -5cm [°C] tt -20cm [°C] tt -100cm [°C] ff [km/u] ff [kn] fx [km/u] fx [kn] dd ppp [hPa] vv [km] sd [min] rr [mm]
18.02.2019 01:00:00 -3,8 -5,7 0,0 0,3 0,1 2,6 4 2 6 3 OZO 1029,1 70 0 0,0
18.02.2019 00:00:00 -3,7 -5,7 0,0 0,3 0,1 2,6 2 1 6 3 OZO 1029,2 49 0 0,0
17.02.2019 23:00:00 -3,3 -5,8 0,0 0,3 0,1 2,6 3 2 6 3 O 1029,1 37 0 0,0
17.02.2019 22:00:00 -2,1 -4,6 0,0 0,3 0,1 2,6 3 1 5 3 Z 1028,9 21 0 0,0
17.02.2019 21:00:00 -1,5 -4,3 0,0 0,3 0,1 2,6 2 1 5 3 ZZW 1028,8 22 0 0,0
17.02.2019 20:00:00 -0,2 -3,8 0,0 0,3 0,1 2,6 2 1 5 3 WZW 1028,2 25 0 0,0
17.02.2019 19:00:00 2,0 -3,5 0,1 0,3 0,1 2,6 3 1 5 3 ZZO 1027,4 29 0 0,0
17.02.2019 18:00:00 4,2 -3,3 0,1 0,3 0,1 2,6 0 0 8 4 N 1026,7 25 31 0,0
17.02.2019 17:00:00 7,8 -4,1 0,1 0,3 0,1 2,6 5 3 8 4 NNW 1025,6 43 60 0,0
17.02.2019 16:00:00 13,4 -4,7 0,1 0,3 0,1 2,6 4 2 8 4 ZW 1024,4 47 60 0,0
17.02.2019 15:00:00 14,1 -6,1 0,1 0,3 0,1 2,6 4 2 7 4 ZW 1024,6 55 60 0,0
17.02.2019 14:00:00 13,3 -5,4 0,1 0,3 0,1 2,6 3 2 4 2 Z 1025,3 36 60 0,0
17.02.2019 13:00:00 10,9 -6,9 0,1 0,3 0,1 2,6 0 0 3 2 N 1026,6 37 60 0,0
17.02.2019 12:00:00 9,2 -6,8 0,1 0,3 0,1 2,6 3 1 4 2 ZW 1027,9 32 60 0,0
17.02.2019 11:00:00 1,8 -7,6 0,1 0,3 0,1 2,6 3 2 4 2 WZW 1030,4 27 60 0,0
17.02.2019 10:00:00 -0,1 -9,0 0,1 0,3 0,1 2,6 2 1 4 2 NNW 1031,2 40 60 0,0
17.02.2019 09:00:00 -4,5 -9,8 0,1 0,3 0,1 2,6 0 0 4 2 N 1032,7 12 60 0,0
17.02.2019 08:00:00 -7,0 -7,8 0,1 0,3 0,1 2,6 2 1 4 2 N 1033,1 38 5 0,0
17.02.2019 07:00:00 -7,4 -8,2 0,1 0,3 0,1 2,6 0 0 4 2 N 1032,9 40 0 0,0
17.02.2019 06:00:00 -6,8 -7,6 0,0 0,3 0,1 2,6 2 1 5 3 NNW 1032,7 41 0 0,0
17.02.2019 05:00:00 -6,9 -7,8 0,1 0,3 0,1 2,6 3 2 4 2 N 1032,8 36 0 0,0
17.02.2019 04:00:00 -6,5 -7,9 0,1 0,3 0,1 2,6 3 2 5 3 ONO 1032,6 37 0 0,0
17.02.2019 03:00:00 -5,8 -6,8 0,1 0,3 0,1 2,6 0 0 5 3 N 1032,9 44 0 0,0
17.02.2019 02:00:00 -5,5 -6,7 0,1 0,3 0,1 2,6 0 0 4 2 N 1033,0 27 0 0,0
17.02.2019 01:00:00 -4,6 -6,5 0,1 0,3 0,1 2,6 0 0 5 3 N 1033,0 34 0 0,0
17.02.2019 00:00:00 -4,0 -6,1 0,1 0,3 0,1 2,6 2 1 5 3 ZO 1033,1 44 0 0,0
16.02.2019 23:00:00 -3,3 -5,6 0,1 0,3 0,1 2,6 3 1 4 2 ZZO 1033,0 16 0 0,0
16.02.2019 22:00:00 -2,8 -5,5 0,1 0,3 0,1 2,6 2 1 5 3 ZO 1032,9 1,4 0 0,0
16.02.2019 21:00:00 -2,2 -6,1 0,1 0,3 0,1 2,6 3 2 6 3 OZO 1032,8 33 0 0,0
16.02.2019 20:00:00 -0,6 -5,2 0,1 0,3 0,1 2,6 4 2 6 4 N 1032,6 23 0 0,0
16.02.2019 19:00:00 1,0 -5,3 0,1 0,3 0,1 2,6 3 1 6 3 ZO 1032,0 27 0 0,0
16.02.2019 18:00:00 3,7 -5,7 0,1 0,3 0,1 2,6 3 1 8 4 N 1030,6 70 29 0,0
16.02.2019 17:00:00 9,7 -8,3 0,1 0,3 0,1 2,6 5 3 8 5 W 1028,8 70 60 0,0
16.02.2019 16:00:00 10,7 -9,8 0,1 0,3 0,1 2,6 8 4 13 7 WZW 1028,7 46 60 0,0
16.02.2019 15:00:00 11,4 -10,5 0,1 0,3 0,1 2,6 4 2 5 3 NW 1029,0 70 60 0,0
16.02.2019 14:00:00 12,7 -7,9 0,1 0,3 0,1 2,6 2 1 5 3 WZW 1029,3 70 60 0,0
16.02.2019 13:00:00 9,5 -7,8 0,1 0,3 0,1 2,6 2 1 4 2 N 1030,9 57 60 0,0
16.02.2019 12:00:00 8,5 -6,3 0,0 0,3 0,1 2,6 0 0 3 2 NNW 1031,5 47 60 0,0
16.02.2019 11:00:00 6,3 -6,3 0,1 0,3 0,1 2,6 0 0 4 2 N 1032,1 26 60 0,0
16.02.2019 10:00:00 -1,2 -7,7 0,1 0,3 0,1 2,6 3 2 4 2 ZW 1034,2 22 60 0,0
16.02.2019 09:00:00 -2,8 -7,5 0,1 0,3 0,1 2,6 3 1 3 2 NNW 1034,7 29 60 0,0
16.02.2019 08:00:00 -5,4 -6,2 0,1 0,3 0,1 2,6 2 1 4 2 ZZW 1035,3 39 3 0,0
16.02.2019 07:00:00 -5,5 -6,2 0,0 0,3 0,1 2,6 3 1 4 2 N 1034,9 46 0 0,0
16.02.2019 06:00:00 -5,0 -5,6 0,0 0,3 0,1 2,6 3 2 4 2 OZO 1034,5 70 0 0,0
16.02.2019 05:00:00 -4,7 -5,6 0,0 0,3 0,1 2,6 1 1 6 3 ZO 1034,6 67 0 0,0
16.02.2019 04:00:00 -4,2 -4,7 0,1 0,3 0,1 2,6 3 1 6 4 ZO 1034,7 69 0 0,0
16.02.2019 03:00:00 -4,1 -4,5 0,0 0,3 0,1 2,6 2 1 9 5 NNW 1035,4 38 0 0,0
16.02.2019 02:00:00 -3,7 -4,3 0,1 0,3 0,1 2,6 2 1 6 3 W 1035,8 38 0 0,0
16.02.2019 01:00:00 -3,1 -3,7 0,0 0,3 0,1 2,6 4 2 6 4 ZO 1035,9 39 0 0,0
16.02.2019 00:00:00 -3,3 -4,2 0,1 0,3 0,1 2,6 5 3 10 5 NNO 1036,1 30 0 0,0
15.02.2019 23:00:00 -2,7 -3,8 0,1 0,3 0,1 2,6 3 2 11 6 N 1036,4 27 0 0,0
15.02.2019 22:00:00 -1,9 -3,5 0,1 0,3 0,1 2,6 4 2 9 5 O 1036,3 33 0 0,0
15.02.2019 21:00:00 -0,8 -2,6 0,1 0,3 0,1 2,6 3 1 9 5 N 1036,4 31 0 0,0
15.02.2019 20:00:00 -0,6 -3,1 0,1 0,3 0,1 2,6 3 2 7 4 NW 1036,6 24 0 0,0
15.02.2019 19:00:00 0,9 -2,7 0,1 0,3 0,1 2,6 4 2 11 6 N 1036,2 26 0 0,0
15.02.2019 18:00:00 3,7 -2,3 0,1 0,3 0,1 2,6 0 0 8 4 N 1035,3 68 29 0,0
15.02.2019 17:00:00 9,1 -1,4 0,1 0,3 0,1 2,6 3 2 10 5 WZW 1033,6 40 60 0,0
15.02.2019 16:00:00 11,3 -3,4 0,1 0,3 0,1 2,6 6 3 12 6 ZZW 1033,2 38 60 0,0
15.02.2019 15:00:00 11,3 -3,8 0,1 0,3 0,1 2,6 7 4 12 6 Z 1033,4 30 60 0,0
15.02.2019 14:00:00 11,5 -3,4 0,1 0,3 0,1 2,6 4 2 8 4 ZZW 1033,6 46 60 0,0
15.02.2019 13:00:00 8,7 -3,7 0,1 0,3 0,1 2,6 5 3 6 4 ZZO 1034,9 31 60 0,0
15.02.2019 12:00:00 7,4 -5,2 0,1 0,3 0,1 2,6 3 1 4 2 ZW 1035,8 36 60 0,0
15.02.2019 11:00:00 3,8 -5,3 0,1 0,3 0,1 2,6 2 1 4 2 WZW 1037,4 19 60 0,0
15.02.2019 10:00:00 -2,4 -6,5 0,1 0,3 0,1 2,6 0 0 3 2 N 1039,2 41 60 0,0
15.02.2019 09:00:00 -3,3 -6,3 0,1 0,3 0,1 2,6 0 0 3 2 N 1039,6 17 60 0,0
15.02.2019 08:00:00 -6,4 -7,1 0,1 0,3 0,1 2,6 0 0 3 2 N 1040,3 30 3 0,0
15.02.2019 07:00:00 -6,4 -6,8 0,1 0,3 0,1 2,6 0 0 4 2 N 1039,9 23 0 0,0
15.02.2019 06:00:00 -6,8 -7,7 0,1 0,3 0,1 2,6 2 1 4 2 NNO 1040,1 46 0 0,0
15.02.2019 05:00:00 -6,0 -6,6 0,0 0,3 0,1 2,6 2 1 4 2 NNO 1040,3 23 0 0,0
15.02.2019 04:00:00 -5,8 -6,3 0,1 0,3 0,1 2,6 3 1 4 2 ONO 1040,4 27 0 0,0
15.02.2019 03:00:00 -5,4 -5,8 0,1 0,3 0,1 2,6 2 1 4 2 NNW 1040,6 23 0 0,0
15.02.2019 02:00:00 -5,1 -5,6 0,0 0,3 0,1 2,6 0 0 5 3 N 1040,7 13 0 0,0
15.02.2019 01:00:00 -4,4 -4,9 0,1 0,3 0,1 2,6 0 0 4 2 N 1040,5 15 0 0,0
15.02.2019 00:00:00 -4,3 -5,0 0,1 0,3 0,1 2,6 0 0 6 3 N 1040,3 12 0 0,0
14.02.2019 23:00:00 -3,4 -3,7 0,1 0,3 0,1 2,6 0 0 3 2 N 1040,1 11 0 0,0
14.02.2019 22:00:00 -3,1 -3,7 0,1 0,3 0,1 2,6 3 2 5 3 NO 1040,0 9 0 0,0
14.02.2019 21:00:00 -2,0 -3,0 0,1 0,3 0,1 2,6 4 2 8 4 OZO 1039,6 23 0 0,0
14.02.2019 20:00:00 -1,7 -3,1 0,1 0,3 0,1 2,6 4 2 6 4 ZZW 1039,7 14 0 0,0
14.02.2019 19:00:00 0,0 -2,0 0,1 0,3 0,1 2,6 4 2 8 4 O 1039,4 32 0 0,0
14.02.2019 18:00:00 1,6 -2,0 0,1 0,3 0,1 2,6 3 2 5 3 NW 1038,4 48 26 0,0
14.02.2019 17:00:00 5,6 -3,9 0,1 0,3 0,1 2,6 5 3 9 5 ZZO 1036,8 35 58 0,0
14.02.2019 16:00:00 6,9 -3,9 0,1 0,3 0,1 2,6 6 3 10 6 Z 1036,6 22 60 0,0
14.02.2019 15:00:00 6,9 -4,1 0,1 0,3 0,1 2,6 6 3 10 5 ZZW 1037,0 28 60 0,0
14.02.2019 14:00:00 8,8 -4,4 0,0 0,3 0,1 2,6 3 1 8 5 WZW 1036,8 47 60 0,0
14.02.2019 13:00:00 5,3 -3,8 0,1 0,3 0,1 2,6 4 2 7 4 WZW 1038,1 63 58 0,0
14.02.2019 12:00:00 1,9 -4,2 0,1 0,3 0,1 2,6 5 3 8 4 W 1039,7 70 60 0,0
14.02.2019 11:00:00 -0,4 -3,1 0,1 0,3 0,1 2,6 3 2 4 2 ONO 1040,7 17 10 0,0
14.02.2019 10:00:00 -3,2 -5,3 0,1 0,3 0,1 2,6 0 0 4 2 N 1041,3 14 38 0,0
14.02.2019 09:00:00 -4,2 -5,5 0,1 0,3 0,1 2,6 2 1 5 3 Z 1041,6 10 32 0,0
14.02.2019 08:00:00 -5,4 -6,1 0,1 0,3 0,1 2,6 0 0 5 3 N 1041,8 10 0 0,0
14.02.2019 07:00:00 -5,3 -5,9 0,1 0,3 0,1 2,6 3 1 4 2 N 1041,5 9 0 0,0
14.02.2019 06:00:00 -5,4 -5,9 0,1 0,3 0,1 2,6 2 1 6 3 N 1041,2 3,4 0 0,0
14.02.2019 05:00:00 -4,6 -5,1 0,1 0,3 0,1 2,6 0 0 5 3 N 1040,9 9 0 0,0
14.02.2019 04:00:00 -4,8 -5,6 0,1 0,3 0,1 2,6 0 0 6 3 N 1040,6 4,0 0 0,0
14.02.2019 03:00:00 -4,3 -4,9 0,0 0,3 0,1 2,6 2 1 6 3 NO 1040,5 7 0 0,0
14.02.2019 02:00:00 -3,5 -3,9 0,0 0,3 0,1 2,6 2 1 7 4 N 1040,3 6 0 0,0
14.02.2019 01:00:00 -3,6 -4,1 0,0 0,3 0,1 2,6 4 2 6 4 ONO 1040,7 6 0 0,0
14.02.2019 00:00:00 -3,1 -3,6 0,0 0,3 0,1 2,6 2 1 6 3 N 1040,2 6 0 0,0
13.02.2019 23:00:00 -2,4 -3,0 0,0 0,3 0,1 2,6 2 1 5 3 N 1040,2 7 0 0,0
13.02.2019 22:00:00 -2,3 -2,9 0,0 0,3 0,1 2,6 4 2 5 3 ZZW 1040,1 6 0 0,0
13.02.2019 21:00:00 -2,5 -3,0 0,1 0,3 0,1 2,6 4 2 6 3 O 1040,3 8 0 0,0
13.02.2019 20:00:00 -1,7 -2,5 0,1 0,3 0,1 2,6 3 2 5 3 ZO 1040,4 13 0 0,0
13.02.2019 19:00:00 -1,1 -2,4 0,0 0,3 0,1 2,6 3 2 11 6 ONO 1039,9 21 0 0,0
13.02.2019 18:00:00 0,2 -2,8 0,1 0,3 0,1 2,6 3 2 9 5 O 1039,5 19 0 0,0
13.02.2019 17:00:00 3,0 -2,3 0,1 0,3 0,1 2,6 6 3 15 8 ZW 1038,4 27 52 0,0
13.02.2019 16:00:00 3,9 -2,7 0,0 0,3 0,1 2,6 13 7 20 11 W 1038,2 30 60 0,0
13.02.2019 15:00:00 4,0 -3,5 0,1 0,3 0,1 2,6 15 8 24 13 WZW 1037,8 23 60 0,0
13.02.2019 14:00:00 3,6 -3,8 0,1 0,3 0,1 2,6 9 5 20 11 WNW 1037,9 15 60 0,0
13.02.2019 13:00:00 3,0 -3,8 0,1 0,3 0,1 2,6 11 6 33 18 W 1038,2 16 60 0,0
13.02.2019 12:00:00 2,3 -4,0 0,1 0,3 0,1 2,6 21 11 33 18 WZW 1038,9 70 60 0,0
13.02.2019 11:00:00 1,5 -4,2 0,1 0,3 0,1 2,6 17 9 24 13 WZW 1039,1 18 60 0,0
13.02.2019 10:00:00 0,8 -4,1 0,1 0,3 0,1 2,6 13 7 22 12 ZW 1038,9 22 54 0,0
13.02.2019 09:00:00 0,1 -2,8 0,1 0,3 0,1 2,6 12 7 20 11 ZW 1038,8 22 0 0,0
13.02.2019 08:00:00 -0,1 -2,5 0,1 0,3 0,1 2,6 11 6 17 9 ZW 1038,5 22 0 0,0
13.02.2019 07:00:00 -0,2 -2,3 0,0 0,3 0,1 2,6 11 6 21 11 WZW 1038,0 19 0 0,0
13.02.2019 06:00:00 -0,1 -2,1 0,0 0,3 0,1 2,6 10 6 14 8 WZW 1038,1 21 0 0,0
13.02.2019 05:00:00 -0,4 -1,6 0,0 0,3 0,1 2,6 8 4 20 11 WZW 1037,9 10 0 0,0
13.02.2019 04:00:00 -0,2 -1,9 0,1 0,3 0,1 2,6 11 6 18 10 WZW 1037,4 15 0 0,0
13.02.2019 03:00:00 -0,5 -2,3 0,1 0,3 0,1 2,6 9 5 20 11 W 1037,4 15 0 0,0
13.02.2019 02:00:00 0,0 -2,1 0,1 0,3 0,1 2,6 13 7 23 12 W 1037,1 19 0 0,0
13.02.2019 01:00:00 0,0 -2,2 0,1 0,3 0,1 2,6 16 8 27 15 W 1037,2 20 0 0,0
13.02.2019 00:00:00 0,0 -2,5 0,1 0,3 0,1 2,6 14 8 28 15 W 1037,1 25 0 0,1
12.02.2019 23:00:00 -0,1 -2,2 0,1 0,3 0,1 2,6 13 7 23 12 W 1037,1 3,2 0 0,0
12.02.2019 22:00:00 0,0 -2,3 0,1 0,3 0,1 2,6 14 7 28 15 W 1037,0 25 0 0,0
12.02.2019 21:00:00 0,0 -2,1 0,1 0,3 0,1 2,6 15 8 29 16 W 1036,6 17 0 0,1
12.02.2019 20:00:00 0,0 -2,6 0,1 0,3 0,1 2,6 17 9 29 16 W 1035,9 36 0 0,0
12.02.2019 19:00:00 -0,5 -2,4 0,1 0,3 0,1 2,6 9 5 16 9 W 1035,6 44 0 0,0
12.02.2019 18:00:00 -0,1 -3,2 0,1 0,3 0,1 2,6 5 3 31 17 WZW 1034,5 52 0 0,0
12.02.2019 17:00:00 0,0 -2,6 0,1 0,3 0,1 2,6 20 11 33 18 WNW 1033,6 27 0 0,0
12.02.2019 16:00:00 -0,1 -2,7 0,1 0,3 0,1 2,6 19 10 34 19 WNW 1033,2 19 0 0,2
12.02.2019 15:00:00 0,0 -3,0 0,1 0,3 0,1 2,6 23 12 40 22 W 1032,9 15 0 0,1
12.02.2019 14:00:00 -0,4 -2,9 0,1 0,3 0,1 2,6 18 10 38 20 W 1032,6 8 0 0,3
12.02.2019 13:00:00 -0,3 -3,1 0,1 0,3 0,1 2,6 21 11 35 19 W 1032,1 5 1 0,6
12.02.2019 12:00:00 -1,0 -2,9 0,1 0,3 0,1 2,6 18 10 45 25 W 1032,2 6 0 0,1
12.02.2019 11:00:00 -1,2 -3,0 0,1 0,3 0,1 2,6 17 9 39 21 W 1031,8 4,3 0 0,3
12.02.2019 10:00:00 -0,9 -4,3 0,1 0,3 0,1 2,6 23 12 37 20 W 1031,1 10 0 0,2
12.02.2019 09:00:00 -1,3 -4,1 0,1 0,3 0,1 2,6 19 11 40 22 W 1030,7 7 0 0,2
12.02.2019 08:00:00 -1,4 -3,7 0,1 0,3 0,1 2,7 18 10 36 19 W 1030,3 6 0 0,1
12.02.2019 07:00:00 -1,3 -4,3 0,1 0,3 0,1 2,7 20 11 40 22 W 1029,4 36 0 0,0
12.02.2019 06:00:00 -1,0 -4,3 0,0 0,3 0,1 2,7 19 10 35 19 W 1029,3 14 0 0,0
12.02.2019 05:00:00 -1,0 -4,3 0,1 0,3 0,1 2,7 16 9 35 19 WNW 1028,8 35 0 0,0
12.02.2019 04:00:00 -0,8 -4,6 0,1 0,3 0,1 2,7 18 10 33 18 W 1027,9 42 0 0,0
12.02.2019 03:00:00 -0,6 -4,0 0,1 0,3 0,1 2,7 14 8 27 14 WNW 1027,7 42 0 0,0
12.02.2019 02:00:00 -0,3 -3,7 0,1 0,3 0,1 2,7 16 9 29 16 WNW 1026,6 45 0 0,0
12.02.2019 01:00:00 -0,6 -3,1 0,0 0,3 0,1 2,7 11 6 23 12 W 1026,3 40 0 0,0

tt = temperatuur
td = dauwpunt
tt 5cm = temperatuur 5cm
tt -5cm = temperatuur -5cm
tt -20cm = temperatuur -20cm
tt -100cm = temperatuur -100cm
ff = windsnelheid
fx = windstoten
dd = windrichting
ppp = luchtdruk
vv = zicht
sd = Zonneschijnduur
rr = neerslag

Weerstations in de omgeving